Location: Round Knob
(37.2473°N, 88.7376°W)
Time: 20:02:41
(UTC+00:00)

N. Korean satellite - Pass Details

Date: 02 October 2021
Orbit: 450 x 495 km, 97.3° (Epoch: 23 October)

Event Time Altitude Azimuth Distance (km) Brightness Sun altitude
Rises 11:14:39 0° 9° (N) 2,554 10.4 -8.2°
Reaches altitude 10° 11:16:43 10° 8° (N) 1,677 9.4 -7.8°
Maximum altitude 11:20:18 75° 284° (WNW) 512 6.5 -7.0°
Drops below altitude 10° 11:23:55 10° 198° (SSW) 1,681 9.1 -6.3°
Sets 11:26:00 0° 196° (SSW) 2,562 10.1 -5.9°
